<?xml version="1.0" encoding="UTF-8" standalone="no" ?><gpx xmlns="http://www.topografix.com/GPX/1/1" xmlns:gpxx="http://www.garmin.com/xmlschemas/GpxExtensions/v3" xmlns:wptx1="http://www.garmin.com/xmlschemas/WaypointExtension/v1" xmlns:gpxtpx="http://www.garmin.com/xmlschemas/TrackPointExtension/v1" creator="GuideVTT.com" version="1.1" xmlns:xsi="http://www.w3.org/2001/XMLSchema-instance" xsi:schemaLocation="http://www.topografix.com/GPX/1/1 http://www.topografix.com/GPX/1/1/gpx.xsd http://www.garmin.com/xmlschemas/GpxExtensions/v3 http://www8.garmin.com/xmlschemas/GpxExtensionsv3.xsd http://www.garmin.com/xmlschemas/WaypointExtension/v1 http://www8.garmin.com/xmlschemas/WaypointExtensionv1.xsd http://www.garmin.com/xmlschemas/TrackPointExtension/v1 http://www.garmin.com/xmlschemas/TrackPointExtensionv1.xsd">
<metadata><link href="http://www.garmin.com"><text>Garmin International</text></link><time>2013-06-22T15:13:50Z</time></metadata>
<trk><name>dgap-rando3.gpx</name><extensions><gpxx:TrackExtension><gpxx:DisplayColor>Cyan</gpxx:DisplayColor></gpxx:TrackExtension></extensions><trkseg>
<trkpt lat="44.66597830" lon="5.70605320"><ele>1031</ele><time>2007-11-22T18:41:35Z</time></trkpt>
<trkpt lat="44.66573540" lon="5.70663780"><ele>1028</ele><time>2007-11-22T18:41:35Z</time></trkpt>
<trkpt lat="44.66473250" lon="5.70705050"><ele>1026</ele><time>2007-11-22T18:41:35Z</time></trkpt>
<trkpt lat="44.66284480" lon="5.70990120"><ele>1018</ele><time>2007-11-22T18:41:35Z</time></trkpt>
<trkpt lat="44.66157780" lon="5.71452340"><ele>1022</ele><time>2007-11-22T18:41:35Z</time></trkpt>
<trkpt lat="44.66046860" lon="5.71546560"><ele>1024</ele><time>2007-11-22T18:41:35Z</time></trkpt>
<trkpt lat="44.66081130" lon="5.71822960"><ele>1032</ele><time>2007-11-22T18:41:35Z</time></trkpt>
<trkpt lat="44.66035480" lon="5.71990490"><ele>1028</ele><time>2007-11-22T18:41:35Z</time></trkpt>
<trkpt lat="44.65774480" lon="5.72208070"><ele>1033</ele><time>2007-11-22T18:41:35Z</time></trkpt>
<trkpt lat="44.65577300" lon="5.72252920"><ele>1042</ele><time>2007-11-22T18:41:35Z</time></trkpt>
<trkpt lat="44.65398330" lon="5.72437590"><ele>1062</ele><time>2007-11-22T18:41:35Z</time></trkpt>
<trkpt lat="44.65369860" lon="5.72631350"><ele>1072</ele><time>2007-11-22T18:41:35Z</time></trkpt>
<trkpt lat="44.65237650" lon="5.72758930"><ele>1062</ele><time>2007-11-22T18:41:35Z</time></trkpt>
<trkpt lat="44.65214240" lon="5.72861560"><ele>1064</ele><time>2007-11-22T18:41:35Z</time></trkpt>
<trkpt lat="44.65136810" lon="5.72964070"><ele>1068</ele><time>2007-11-22T18:41:35Z</time></trkpt>
<trkpt lat="44.65101210" lon="5.73242510"><ele>1081</ele><time>2007-11-22T18:41:35Z</time></trkpt>
<trkpt lat="44.65018340" lon="5.73521240"><ele>1106</ele><time>2007-11-22T18:41:35Z</time></trkpt>
<trkpt lat="44.64985740" lon="5.73629610"><ele>1126</ele><time>2007-11-22T18:41:35Z</time></trkpt>
<trkpt lat="44.64896000" lon="5.73766040"><ele>1121</ele><time>2007-11-22T18:41:35Z</time></trkpt>
<trkpt lat="44.64870820" lon="5.73852780"><ele>1152</ele><time>2007-11-22T18:41:35Z</time></trkpt>
<trkpt lat="44.64815930" lon="5.73880980"><ele>1124</ele><time>2007-11-22T18:41:35Z</time></trkpt>
<trkpt lat="44.64532360" lon="5.74317730"><ele>1129</ele><time>2007-11-22T18:41:35Z</time></trkpt>
<trkpt lat="44.64518910" lon="5.74824460"><ele>1155</ele><time>2007-11-22T18:41:35Z</time></trkpt>
<trkpt lat="44.64331600" lon="5.75276460"><ele>1179</ele><time>2007-11-22T18:41:35Z</time></trkpt>
<trkpt lat="44.64197990" lon="5.75448010"><ele>1169</ele><time>2007-11-22T18:41:35Z</time></trkpt>
<trkpt lat="44.64157070" lon="5.75606280"><ele>1178</ele><time>2007-11-22T18:41:35Z</time></trkpt>
<trkpt lat="44.64154520" lon="5.75833090"><ele>1211</ele><time>2007-11-22T18:41:35Z</time></trkpt>
<trkpt lat="44.63910430" lon="5.76155480"><ele>1213</ele><time>2007-11-22T18:41:35Z</time></trkpt>
<trkpt lat="44.63888470" lon="5.75993380"><ele>1210</ele><time>2007-11-22T18:41:35Z</time></trkpt>
<trkpt lat="44.63839050" lon="5.75917860"><ele>1221</ele><time>2007-11-22T18:41:35Z</time></trkpt>
<trkpt lat="44.63838080" lon="5.75804330"><ele>1226</ele><time>2007-11-22T18:41:35Z</time></trkpt>
<trkpt lat="44.63926280" lon="5.75718300"><ele>1215</ele><time>2007-11-22T18:41:35Z</time></trkpt>
<trkpt lat="44.63948940" lon="5.75640870"><ele>1219</ele><time>2007-11-22T18:41:35Z</time></trkpt>
<trkpt lat="44.63908220" lon="5.75502850"><ele>1232</ele><time>2007-11-22T18:41:35Z</time></trkpt>
<trkpt lat="44.63914670" lon="5.75367700"><ele>1231</ele><time>2007-11-22T18:41:35Z</time></trkpt>
<trkpt lat="44.63956570" lon="5.75250470"><ele>1231</ele><time>2007-11-22T18:41:35Z</time></trkpt>
<trkpt lat="44.63929900" lon="5.75166890"><ele>1248</ele><time>2007-11-22T18:41:35Z</time></trkpt>
<trkpt lat="44.63941520" lon="5.75009990"><ele>1256</ele><time>2007-11-22T18:41:35Z</time></trkpt>
<trkpt lat="44.64097290" lon="5.74849250"><ele>1256</ele><time>2007-11-22T18:41:35Z</time></trkpt>
<trkpt lat="44.64087920" lon="5.74788790"><ele>1268</ele><time>2007-11-22T18:41:35Z</time></trkpt>
<trkpt lat="44.64193190" lon="5.74659640"><ele>1267</ele><time>2007-11-22T18:41:35Z</time></trkpt>
<trkpt lat="44.64192310" lon="5.74615460"><ele>1274</ele><time>2007-11-22T18:41:35Z</time></trkpt>
<trkpt lat="44.64112810" lon="5.74566500"><ele>1291</ele><time>2007-11-22T18:41:35Z</time></trkpt>
<trkpt lat="44.64016220" lon="5.74560630"><ele>1301</ele><time>2007-11-22T18:41:35Z</time></trkpt>
<trkpt lat="44.63948340" lon="5.74572260"><ele>1310</ele><time>2007-11-22T18:41:35Z</time></trkpt>
<trkpt lat="44.63936530" lon="5.74735450"><ele>1303</ele><time>2007-11-22T18:41:35Z</time></trkpt>
<trkpt lat="44.63864360" lon="5.74740520"><ele>1313</ele><time>2007-11-22T18:41:35Z</time></trkpt>
<trkpt lat="44.63683980" lon="5.74896610"><ele>1339</ele><time>2007-11-22T18:41:35Z</time></trkpt>
<trkpt lat="44.63721090" lon="5.74788550"><ele>1341</ele><time>2007-11-22T18:41:35Z</time></trkpt>
<trkpt lat="44.63679970" lon="5.74808110"><ele>1349</ele><time>2007-11-22T18:41:35Z</time></trkpt>
<trkpt lat="44.63591100" lon="5.75061160"><ele>1355</ele><time>2007-11-22T18:41:35Z</time></trkpt>
<trkpt lat="44.63521270" lon="5.75135710"><ele>1369</ele><time>2007-11-22T18:41:35Z</time></trkpt>
<trkpt lat="44.63202870" lon="5.75894810"><ele>1309</ele><time>2007-11-22T18:41:35Z</time></trkpt>
<trkpt lat="44.63148270" lon="5.75986030"><ele>1295</ele><time>2007-11-22T18:41:35Z</time></trkpt>
<trkpt lat="44.63048260" lon="5.76017740"><ele>1270</ele><time>2007-11-22T18:41:35Z</time></trkpt>
<trkpt lat="44.63045710" lon="5.76099530"><ele>1291</ele><time>2007-11-22T18:41:35Z</time></trkpt>
<trkpt lat="44.63011430" lon="5.76116350"><ele>1285</ele><time>2007-11-22T18:41:35Z</time></trkpt>
<trkpt lat="44.63028420" lon="5.76148900"><ele>1301</ele><time>2007-11-22T18:41:35Z</time></trkpt>
<trkpt lat="44.62952050" lon="5.76144240"><ele>1289</ele><time>2007-11-22T18:41:35Z</time></trkpt>
<trkpt lat="44.62974700" lon="5.76211810"><ele>1309</ele><time>2007-11-22T18:41:35Z</time></trkpt>
<trkpt lat="44.62942270" lon="5.76241340"><ele>1313</ele><time>2007-11-22T18:41:35Z</time></trkpt>
<trkpt lat="44.62889050" lon="5.76216030"><ele>1306</ele><time>2007-11-22T18:41:35Z</time></trkpt>
<trkpt lat="44.62762280" lon="5.76239810"><ele>1321</ele><time>2007-11-22T18:41:35Z</time></trkpt>
<trkpt lat="44.62774890" lon="5.76123970"><ele>1320</ele><time>2007-11-22T18:41:35Z</time></trkpt>
<trkpt lat="44.62825380" lon="5.76092390"><ele>1312</ele><time>2007-11-22T18:41:35Z</time></trkpt>
<trkpt lat="44.62845900" lon="5.75939210"><ele>1324</ele><time>2007-11-22T18:41:35Z</time></trkpt>
<trkpt lat="44.62776080" lon="5.75868770"><ele>1347</ele><time>2007-11-22T18:41:35Z</time></trkpt>
<trkpt lat="44.62795220" lon="5.75759640"><ele>1341</ele><time>2007-11-22T18:41:35Z</time></trkpt>
<trkpt lat="44.62751860" lon="5.75706570"><ele>1362</ele><time>2007-11-22T18:41:35Z</time></trkpt>
<trkpt lat="44.62702940" lon="5.75542860"><ele>1371</ele><time>2007-11-22T18:41:35Z</time></trkpt>
<trkpt lat="44.62718180" lon="5.75414580"><ele>1363</ele><time>2007-11-22T18:41:35Z</time></trkpt>
<trkpt lat="44.62658120" lon="5.75319530"><ele>1391</ele><time>2007-11-22T18:41:35Z</time></trkpt>
<trkpt lat="44.62633210" lon="5.75614250"><ele>1409</ele><time>2007-11-22T18:41:35Z</time></trkpt>
<trkpt lat="44.62641600" lon="5.75778630"><ele>1408</ele><time>2007-11-22T18:41:35Z</time></trkpt>
<trkpt lat="44.62433170" lon="5.76040090"><ele>1430</ele><time>2007-11-22T18:41:35Z</time></trkpt>
<trkpt lat="44.62447810" lon="5.76148130"><ele>1428</ele><time>2007-11-22T18:41:35Z</time></trkpt>
<trkpt lat="44.62406490" lon="5.76246440"><ele>1450</ele><time>2007-11-22T18:41:35Z</time></trkpt>
<trkpt lat="44.62486370" lon="5.76355320"><ele>1445</ele><time>2007-11-22T18:41:35Z</time></trkpt>
<trkpt lat="44.62466040" lon="5.76502190"><ele>1453</ele><time>2007-11-22T18:41:35Z</time></trkpt>
<trkpt lat="44.62253590" lon="5.76747610"><ele>1529</ele><time>2007-11-22T18:41:35Z</time></trkpt>
<trkpt lat="44.62104110" lon="5.77066180"><ele>1598</ele><time>2007-11-22T18:41:35Z</time></trkpt>
<trkpt lat="44.62169500" lon="5.77350640"><ele>1659</ele><time>2007-11-22T18:41:35Z</time></trkpt>
<trkpt lat="44.62073750" lon="5.77533840"><ele>1677</ele><time>2007-11-22T18:41:35Z</time></trkpt>
<trkpt lat="44.62033400" lon="5.78032400"><ele>1643</ele><time>2007-11-22T18:41:35Z</time></trkpt>
<trkpt lat="44.61986110" lon="5.78105120"><ele>1623</ele><time>2007-11-22T18:41:35Z</time></trkpt>
<trkpt lat="44.62003860" lon="5.78184990"><ele>1602</ele><time>2007-11-22T18:41:35Z</time></trkpt>
<trkpt lat="44.62094180" lon="5.78247260"><ele>1602</ele><time>2007-11-22T18:41:35Z</time></trkpt>
<trkpt lat="44.62138600" lon="5.78338220"><ele>1599</ele><time>2007-11-22T18:41:35Z</time></trkpt>
<trkpt lat="44.62161510" lon="5.78468820"><ele>1569</ele><time>2007-11-22T18:41:35Z</time></trkpt>
<trkpt lat="44.62296180" lon="5.78480250"><ele>1573</ele><time>2007-11-22T18:41:35Z</time></trkpt>
<trkpt lat="44.62284880" lon="5.78410230"><ele>1586</ele><time>2007-11-22T18:41:35Z</time></trkpt>
<trkpt lat="44.62410470" lon="5.78424250"><ele>1620</ele><time>2007-11-22T18:41:35Z</time></trkpt>
<trkpt lat="44.62423060" lon="5.78453380"><ele>1632</ele><time>2007-11-22T18:41:35Z</time></trkpt>
<trkpt lat="44.62475330" lon="5.78365210"><ele>1651</ele><time>2007-11-22T18:41:35Z</time></trkpt>
<trkpt lat="44.62467930" lon="5.78314330"><ele>1650</ele><time>2007-11-22T18:41:35Z</time></trkpt>
<trkpt lat="44.62517620" lon="5.78380410"><ele>1671</ele><time>2007-11-22T18:41:35Z</time></trkpt>
<trkpt lat="44.62540870" lon="5.78356630"><ele>1671</ele><time>2007-11-22T18:41:35Z</time></trkpt>
<trkpt lat="44.62537120" lon="5.78476150"><ele>1706</ele><time>2007-11-22T18:41:35Z</time></trkpt>
<trkpt lat="44.62446100" lon="5.78795150"><ele>1703</ele><time>2007-11-22T18:41:35Z</time></trkpt>
<trkpt lat="44.62891940" lon="5.79074700"><ele>1675</ele><time>2007-11-22T18:41:35Z</time></trkpt>
<trkpt lat="44.62870780" lon="5.79246740"><ele>1733</ele><time>2007-11-22T18:41:35Z</time></trkpt>
<trkpt lat="44.62893880" lon="5.79371080"><ele>1780</ele><time>2007-11-22T18:41:35Z</time></trkpt>
<trkpt lat="44.62860850" lon="5.79419470"><ele>1794</ele><time>2007-11-22T18:41:35Z</time></trkpt>
<trkpt lat="44.62890130" lon="5.79490610"><ele>1802</ele><time>2007-11-22T18:41:35Z</time></trkpt>
<trkpt lat="44.62894360" lon="5.79642150"><ele>1812</ele><time>2007-11-22T18:41:35Z</time></trkpt>
<trkpt lat="44.63162940" lon="5.80333190"><ele>1762</ele><time>2007-11-22T18:41:35Z</time></trkpt>
<trkpt lat="44.63171190" lon="5.80428260"><ele>1750</ele><time>2007-11-22T18:41:35Z</time></trkpt>
<trkpt lat="44.63346000" lon="5.80451670"><ele>1715</ele><time>2007-11-22T18:41:35Z</time></trkpt>
<trkpt lat="44.63441860" lon="5.80552150"><ele>1694</ele><time>2007-11-22T18:41:35Z</time></trkpt>
<trkpt lat="44.63608830" lon="5.80824100"><ele>1655</ele><time>2007-11-22T18:41:35Z</time></trkpt>
<trkpt lat="44.63586030" lon="5.80904640"><ele>1635</ele><time>2007-11-22T18:41:35Z</time></trkpt>
<trkpt lat="44.63630680" lon="5.81058710"><ele>1619</ele><time>2007-11-22T18:41:35Z</time></trkpt>
<trkpt lat="44.63562030" lon="5.81237270"><ele>1576</ele><time>2007-11-22T18:41:35Z</time></trkpt>
<trkpt lat="44.63542660" lon="5.81636380"><ele>1503</ele><time>2007-11-22T18:41:35Z</time></trkpt>
<trkpt lat="44.63579950" lon="5.81667060"><ele>1510</ele><time>2007-11-22T18:41:35Z</time></trkpt>
<trkpt lat="44.63681650" lon="5.81938150"><ele>1501</ele><time>2007-11-22T18:41:35Z</time></trkpt>
<trkpt lat="44.63709820" lon="5.82185760"><ele>1489</ele><time>2007-11-22T18:41:35Z</time></trkpt>
<trkpt lat="44.63716020" lon="5.82416250"><ele>1456</ele><time>2007-11-22T18:41:35Z</time></trkpt>
<trkpt lat="44.63638710" lon="5.82654160"><ele>1424</ele><time>2007-11-22T18:41:35Z</time></trkpt>
<trkpt lat="44.63485750" lon="5.82225430"><ele>1427</ele><time>2007-11-22T18:41:35Z</time></trkpt>
<trkpt lat="44.63443380" lon="5.82355180"><ele>1413</ele><time>2007-11-22T18:41:35Z</time></trkpt>
<trkpt lat="44.63329020" lon="5.82341760"><ele>1424</ele><time>2007-11-22T18:41:35Z</time></trkpt>
<trkpt lat="44.63287950" lon="5.82572450"><ele>1407</ele><time>2007-11-22T18:41:35Z</time></trkpt>
<trkpt lat="44.63242080" lon="5.82670460"><ele>1424</ele><time>2007-11-22T18:41:35Z</time></trkpt>
<trkpt lat="44.63294640" lon="5.82787200"><ele>1420</ele><time>2007-11-22T18:41:35Z</time></trkpt>
<trkpt lat="44.63288450" lon="5.82840390"><ele>1428</ele><time>2007-11-22T18:41:35Z</time></trkpt>
<trkpt lat="44.63354740" lon="5.82879190"><ele>1405</ele><time>2007-11-22T18:41:35Z</time></trkpt>
<trkpt lat="44.63358980" lon="5.83100090"><ele>1406</ele><time>2007-11-22T18:41:35Z</time></trkpt>
<trkpt lat="44.63521590" lon="5.83365540"><ele>1370</ele><time>2007-11-22T18:41:35Z</time></trkpt>
<trkpt lat="44.63552190" lon="5.83465160"><ele>1381</ele><time>2007-11-22T18:41:35Z</time></trkpt>
<trkpt lat="44.63703520" lon="5.83660570"><ele>1343</ele><time>2007-11-22T18:41:35Z</time></trkpt>
<trkpt lat="44.63739000" lon="5.83747900"><ele>1323</ele><time>2007-11-22T18:41:35Z</time></trkpt>
<trkpt lat="44.63723260" lon="5.83888760"><ele>1314</ele><time>2007-11-22T18:41:35Z</time></trkpt>
<trkpt lat="44.63778290" lon="5.83715670"><ele>1296</ele><time>2007-11-22T18:41:35Z</time></trkpt>
<trkpt lat="44.63776200" lon="5.83639890"><ele>1300</ele><time>2007-11-22T18:41:35Z</time></trkpt>
<trkpt lat="44.63675880" lon="5.83397220"><ele>1289</ele><time>2007-11-22T18:41:35Z</time></trkpt>
<trkpt lat="44.63828970" lon="5.83466660"><ele>1264</ele><time>2007-11-22T18:41:35Z</time></trkpt>
<trkpt lat="44.63909480" lon="5.83553640"><ele>1254</ele><time>2007-11-22T18:41:35Z</time></trkpt>
<trkpt lat="44.63919650" lon="5.83658300"><ele>1236</ele><time>2007-11-22T18:41:35Z</time></trkpt>
<trkpt lat="44.63989030" lon="5.83741440"><ele>1254</ele><time>2007-11-22T18:41:35Z</time></trkpt>
<trkpt lat="44.63879420" lon="5.84144390"><ele>1236</ele><time>2007-11-22T18:41:35Z</time></trkpt>
<trkpt lat="44.63918250" lon="5.84197250"><ele>1252</ele><time>2007-11-22T18:41:35Z</time></trkpt>
<trkpt lat="44.63990770" lon="5.84605280"><ele>1280</ele><time>2007-11-22T18:41:35Z</time></trkpt>
<trkpt lat="44.63958560" lon="5.84697840"><ele>1254</ele><time>2007-11-22T18:41:35Z</time></trkpt>
<trkpt lat="44.63841890" lon="5.84756730"><ele>1209</ele><time>2007-11-22T18:41:35Z</time></trkpt>
<trkpt lat="44.63880150" lon="5.84897830"><ele>1230</ele><time>2007-11-22T18:41:35Z</time></trkpt>
<trkpt lat="44.63836870" lon="5.84914030"><ele>1231</ele><time>2007-11-22T18:41:35Z</time></trkpt>
<trkpt lat="44.63784210" lon="5.84942250"><ele>1222</ele><time>2007-11-22T18:41:35Z</time></trkpt>
<trkpt lat="44.63774490" lon="5.85105560"><ele>1255</ele><time>2007-11-22T18:41:35Z</time></trkpt>
<trkpt lat="44.63586820" lon="5.85273470"><ele>1269</ele><time>2007-11-22T18:41:35Z</time></trkpt>
<trkpt lat="44.63495130" lon="5.85255120"><ele>1259</ele><time>2007-11-22T18:41:35Z</time></trkpt>
<trkpt lat="44.63425740" lon="5.85313810"><ele>1264</ele><time>2007-11-22T18:41:35Z</time></trkpt>
<trkpt lat="44.63123610" lon="5.85682550"><ele>1315</ele><time>2007-11-22T18:41:35Z</time></trkpt>
<trkpt lat="44.62978550" lon="5.85714420"><ele>1313</ele><time>2007-11-22T18:41:35Z</time></trkpt>
<trkpt lat="44.62829190" lon="5.85950880"><ele>1324</ele><time>2007-11-22T18:41:35Z</time></trkpt>
<trkpt lat="44.62899620" lon="5.85930090"><ele>1337</ele><time>2007-11-22T18:41:35Z</time></trkpt>
<trkpt lat="44.62988400" lon="5.85828500"><ele>1340</ele><time>2007-11-22T18:41:35Z</time></trkpt>
<trkpt lat="44.63024140" lon="5.85837050"><ele>1348</ele><time>2007-11-22T18:41:35Z</time></trkpt>
<trkpt lat="44.63000570" lon="5.85870240"><ele>1346</ele><time>2007-11-22T18:41:35Z</time></trkpt>
<trkpt lat="44.63014710" lon="5.85990900"><ele>1355</ele><time>2007-11-22T18:41:35Z</time></trkpt>
<trkpt lat="44.62947020" lon="5.85996100"><ele>1356</ele><time>2007-11-22T18:41:35Z</time></trkpt>
<trkpt lat="44.62888250" lon="5.86074350"><ele>1364</ele><time>2007-11-22T18:41:35Z</time></trkpt>
<trkpt lat="44.62938070" lon="5.86064880"><ele>1369</ele><time>2007-11-22T18:41:35Z</time></trkpt>
<trkpt lat="44.62961370" lon="5.86110470"><ele>1378</ele><time>2007-11-22T18:41:35Z</time></trkpt>
<trkpt lat="44.63022210" lon="5.86107980"><ele>1377</ele><time>2007-11-22T18:41:35Z</time></trkpt>
<trkpt lat="44.63105550" lon="5.86176260"><ele>1392</ele><time>2007-11-22T18:41:35Z</time></trkpt>
<trkpt lat="44.63196680" lon="5.86071670"><ele>1389</ele><time>2007-11-22T18:41:35Z</time></trkpt>
<trkpt lat="44.63266710" lon="5.86063460"><ele>1390</ele><time>2007-11-22T18:41:35Z</time></trkpt>
<trkpt lat="44.63325690" lon="5.85978910"><ele>1385</ele><time>2007-11-22T18:41:35Z</time></trkpt>
<trkpt lat="44.63488790" lon="5.85875680"><ele>1393</ele><time>2007-11-22T18:41:35Z</time></trkpt>
<trkpt lat="44.63525870" lon="5.85912680"><ele>1401</ele><time>2007-11-22T18:41:35Z</time></trkpt>
<trkpt lat="44.63595900" lon="5.85904470"><ele>1405</ele><time>2007-11-22T18:41:35Z</time></trkpt>
<trkpt lat="44.63646250" lon="5.85948610"><ele>1406</ele><time>2007-11-22T18:41:35Z</time></trkpt>
<trkpt lat="44.63655470" lon="5.86012230"><ele>1414</ele><time>2007-11-22T18:41:35Z</time></trkpt>
<trkpt lat="44.63724390" lon="5.86038630"><ele>1411</ele><time>2007-11-22T18:41:35Z</time></trkpt>
<trkpt lat="44.63752920" lon="5.86131830"><ele>1445</ele><time>2007-11-22T18:41:35Z</time></trkpt>
<trkpt lat="44.63850680" lon="5.86030800"><ele>1462</ele><time>2007-11-22T18:41:35Z</time></trkpt>
<trkpt lat="44.64007990" lon="5.85756970"><ele>1439</ele><time>2007-11-22T18:41:35Z</time></trkpt>
<trkpt lat="44.64060790" lon="5.85794960"><ele>1435</ele><time>2007-11-22T18:41:35Z</time></trkpt>
<trkpt lat="44.64099970" lon="5.85977110"><ele>1463</ele><time>2007-11-22T18:41:35Z</time></trkpt>
<trkpt lat="44.64143390" lon="5.86027120"><ele>1466</ele><time>2007-11-22T18:41:35Z</time></trkpt>
<trkpt lat="44.64287440" lon="5.86026710"><ele>1498</ele><time>2007-11-22T18:41:35Z</time></trkpt>
<trkpt lat="44.64400090" lon="5.85882470"><ele>1493</ele><time>2007-11-22T18:41:35Z</time></trkpt>
<trkpt lat="44.64473410" lon="5.85912290"><ele>1485</ele><time>2007-11-22T18:41:35Z</time></trkpt>
<trkpt lat="44.64575580" lon="5.86095260"><ele>1509</ele><time>2007-11-22T18:41:35Z</time></trkpt>
<trkpt lat="44.64620710" lon="5.86091790"><ele>1520</ele><time>2007-11-22T18:41:35Z</time></trkpt>
<trkpt lat="44.64679350" lon="5.85947300"><ele>1497</ele><time>2007-11-22T18:41:35Z</time></trkpt>
<trkpt lat="44.64739260" lon="5.85903770"><ele>1486</ele><time>2007-11-22T18:41:35Z</time></trkpt>
<trkpt lat="44.64880770" lon="5.85912660"><ele>1478</ele><time>2007-11-22T18:41:35Z</time></trkpt>
<trkpt lat="44.64920060" lon="5.85880440"><ele>1463</ele><time>2007-11-22T18:41:35Z</time></trkpt>
<trkpt lat="44.64996330" lon="5.85888390"><ele>1454</ele><time>2007-11-22T18:41:35Z</time></trkpt>
<trkpt lat="44.65137440" lon="5.85909860"><ele>1453</ele><time>2007-11-22T18:41:35Z</time></trkpt>
<trkpt lat="44.65264840" lon="5.85867420"><ele>1424</ele><time>2007-11-22T18:41:35Z</time></trkpt>
<trkpt lat="44.65323060" lon="5.85946750"><ele>1432</ele><time>2007-11-22T18:41:35Z</time></trkpt>
<trkpt lat="44.65599380" lon="5.85822210"><ele>1402</ele><time>2007-11-22T18:41:35Z</time></trkpt>
<trkpt lat="44.65803720" lon="5.85907570"><ele>1418</ele><time>2007-11-22T18:41:35Z</time></trkpt>
<trkpt lat="44.65904260" lon="5.85860280"><ele>1422</ele><time>2007-11-22T18:41:35Z</time></trkpt>
<trkpt lat="44.66099400" lon="5.85951380"><ele>1432</ele><time>2007-11-22T18:41:35Z</time></trkpt>
<trkpt lat="44.66218210" lon="5.86107060"><ele>1437</ele><time>2007-11-22T18:41:35Z</time></trkpt>
<trkpt lat="44.66267380" lon="5.86258370"><ele>1446</ele><time>2007-11-22T18:41:35Z</time></trkpt>
<trkpt lat="44.66355540" lon="5.86386910"><ele>1453</ele><time>2007-11-22T18:41:35Z</time></trkpt>
<trkpt lat="44.66404330" lon="5.86620200"><ele>1452</ele><time>2007-11-22T18:41:35Z</time></trkpt>
<trkpt lat="44.66609240" lon="5.86898030"><ele>1460</ele><time>2007-11-22T18:41:35Z</time></trkpt>
<trkpt lat="44.66668410" lon="5.87087830"><ele>1469</ele><time>2007-11-22T18:41:35Z</time></trkpt>
<trkpt lat="44.66957160" lon="5.87137580"><ele>1472</ele><time>2007-11-22T18:41:35Z</time></trkpt>
<trkpt lat="44.67013640" lon="5.87201070"><ele>1468</ele><time>2007-11-22T18:41:35Z</time></trkpt>
<trkpt lat="44.67158250" lon="5.87323740"><ele>1464</ele><time>2007-11-22T18:41:35Z</time></trkpt>
<trkpt lat="44.67430280" lon="5.87473380"><ele>1450</ele><time>2007-11-22T18:41:35Z</time></trkpt>
<trkpt lat="44.67703480" lon="5.87796610"><ele>1444</ele><time>2007-11-22T18:41:35Z</time></trkpt>
<trkpt lat="44.67851020" lon="5.87828020"><ele>1425</ele><time>2007-11-22T18:41:35Z</time></trkpt>
<trkpt lat="44.68419820" lon="5.88337190"><ele>1415</ele><time>2007-11-22T18:41:35Z</time></trkpt>
<trkpt lat="44.68453630" lon="5.88405590"><ele>1419</ele><time>2007-11-22T18:41:35Z</time></trkpt>
<trkpt lat="44.68788670" lon="5.88694980"><ele>1433</ele><time>2007-11-22T18:41:35Z</time></trkpt>
<trkpt lat="44.68953700" lon="5.88951540"><ele>1429</ele><time>2007-11-22T18:41:35Z</time></trkpt>
<trkpt lat="44.69087400" lon="5.89272390"><ele>1445</ele><time>2007-11-22T18:41:35Z</time></trkpt>
<trkpt lat="44.69138360" lon="5.89436540"><ele>1459</ele><time>2007-11-22T18:41:35Z</time></trkpt>
<trkpt lat="44.69247200" lon="5.89481320"><ele>1462</ele><time>2007-11-22T18:41:35Z</time></trkpt>
<trkpt lat="44.69295130" lon="5.89878790"><ele>1446</ele><time>2007-11-22T18:41:35Z</time></trkpt>
<trkpt lat="44.69280740" lon="5.89975690"><ele>1443</ele><time>2007-11-22T18:41:35Z</time></trkpt>
<trkpt lat="44.69263590" lon="5.90088190"><ele>1441</ele><time>2007-11-22T18:41:35Z</time></trkpt>
<trkpt lat="44.69281880" lon="5.90288150"><ele>1457</ele><time>2007-11-22T18:41:35Z</time></trkpt>
<trkpt lat="44.69335790" lon="5.90430420"><ele>1463</ele><time>2007-11-22T18:41:35Z</time></trkpt>
<trkpt lat="44.68963440" lon="5.90390940"><ele>1513</ele><time>2007-11-22T18:41:35Z</time></trkpt>
<trkpt lat="44.68894020" lon="5.90449620"><ele>1518</ele><time>2007-11-22T18:41:35Z</time></trkpt>
<trkpt lat="44.68735770" lon="5.90818160"><ele>1527</ele><time>2007-11-22T18:41:35Z</time></trkpt>
<trkpt lat="44.68705540" lon="5.90986610"><ele>1541</ele><time>2007-11-22T18:41:35Z</time></trkpt>
<trkpt lat="44.68755350" lon="5.91393640"><ele>1622</ele><time>2007-11-22T18:41:35Z</time></trkpt>
<trkpt lat="44.68712780" lon="5.91387770"><ele>1618</ele><time>2007-11-22T18:41:35Z</time></trkpt>
<trkpt lat="44.68654580" lon="5.91447160"><ele>1621</ele><time>2007-11-22T18:41:35Z</time></trkpt>
<trkpt lat="44.68534080" lon="5.91761270"><ele>1589</ele><time>2007-11-22T18:41:35Z</time></trkpt>
<trkpt lat="44.68531820" lon="5.91899950"><ele>1579</ele><time>2007-11-22T18:41:35Z</time></trkpt>
<trkpt lat="44.68586640" lon="5.91944470"><ele>1582</ele><time>2007-11-22T18:41:35Z</time></trkpt>
<trkpt lat="44.68661860" lon="5.92122810"><ele>1575</ele><time>2007-11-22T18:41:35Z</time></trkpt>
<trkpt lat="44.68804270" lon="5.92311760"><ele>1568</ele><time>2007-11-22T18:41:35Z</time></trkpt>
<trkpt lat="44.68980270" lon="5.92367200"><ele>1557</ele><time>2007-11-22T18:41:35Z</time></trkpt>
<trkpt lat="44.68903480" lon="5.92444320"><ele>1551</ele><time>2007-11-22T18:41:35Z</time></trkpt>
<trkpt lat="44.68790150" lon="5.92468620"><ele>1552</ele><time>2007-11-22T18:41:35Z</time></trkpt>
<trkpt lat="44.68760430" lon="5.92551910"><ele>1545</ele><time>2007-11-22T18:41:35Z</time></trkpt>
<trkpt lat="44.68637900" lon="5.92651330"><ele>1547</ele><time>2007-11-22T18:41:35Z</time></trkpt>
<trkpt lat="44.68947650" lon="5.92677490"><ele>1533</ele><time>2007-11-22T18:41:35Z</time></trkpt>
<trkpt lat="44.69026460" lon="5.92745640"><ele>1527</ele><time>2007-11-22T18:41:35Z</time></trkpt>
<trkpt lat="44.69272100" lon="5.92805560"><ele>1508</ele><time>2007-11-22T18:41:35Z</time></trkpt>
<trkpt lat="44.69560110" lon="5.92808240"><ele>1417</ele><time>2007-11-22T18:41:35Z</time></trkpt>
<trkpt lat="44.69601850" lon="5.92908740"><ele>1402</ele><time>2007-11-22T18:41:35Z</time></trkpt>
<trkpt lat="44.69666460" lon="5.92998090"><ele>1374</ele><time>2007-11-22T18:41:35Z</time></trkpt>
<trkpt lat="44.69670720" lon="5.93143520"><ele>1343</ele><time>2007-11-22T18:41:35Z</time></trkpt>
<trkpt lat="44.69532120" lon="5.93390230"><ele>1320</ele><time>2007-11-22T18:41:35Z</time></trkpt>
<trkpt lat="44.69456450" lon="5.93432710"><ele>1320</ele><time>2007-11-22T18:41:35Z</time></trkpt>
<trkpt lat="44.69240650" lon="5.93699690"><ele>1283</ele><time>2007-11-22T18:41:35Z</time></trkpt>
<trkpt lat="44.69350420" lon="5.93646790"><ele>1277</ele><time>2007-11-22T18:41:35Z</time></trkpt>
<trkpt lat="44.69462040" lon="5.93537200"><ele>1279</ele><time>2007-11-22T18:41:35Z</time></trkpt>
<trkpt lat="44.69627960" lon="5.93487900"><ele>1286</ele><time>2007-11-22T18:41:35Z</time></trkpt>
<trkpt lat="44.69498320" lon="5.93804600"><ele>1288</ele><time>2007-11-22T18:41:35Z</time></trkpt>
<trkpt lat="44.69398480" lon="5.94104270"><ele>1299</ele><time>2007-11-22T18:41:35Z</time></trkpt>
<trkpt lat="44.69706160" lon="5.93918940"><ele>1313</ele><time>2007-11-22T18:41:35Z</time></trkpt>
<trkpt lat="44.70006580" lon="5.94092900"><ele>1339</ele><time>2007-11-22T18:41:35Z</time></trkpt>
<trkpt lat="44.70185670" lon="5.94053920"><ele>1358</ele><time>2007-11-22T18:41:35Z</time></trkpt>
<trkpt lat="44.70345950" lon="5.94108420"><ele>1406</ele><time>2007-11-22T18:41:35Z</time></trkpt>
<trkpt lat="44.70404970" lon="5.94093280"><ele>1416</ele><time>2007-11-22T18:41:35Z</time></trkpt>
<trkpt lat="44.70471110" lon="5.94135410"><ele>1426</ele><time>2007-11-22T18:41:35Z</time></trkpt>
<trkpt lat="44.70457360" lon="5.94349140"><ele>1462</ele><time>2007-11-22T18:41:35Z</time></trkpt>
<trkpt lat="44.70354590" lon="5.94531890"><ele>1472</ele><time>2007-11-22T18:41:35Z</time></trkpt>
<trkpt lat="44.70332860" lon="5.94782980"><ele>1508</ele><time>2007-11-22T18:41:35Z</time></trkpt>
<trkpt lat="44.70205400" lon="5.94894690"><ele>1495</ele><time>2007-11-22T18:41:35Z</time></trkpt>
<trkpt lat="44.70174830" lon="5.95003180"><ele>1501</ele><time>2007-11-22T18:41:35Z</time></trkpt>
<trkpt lat="44.69888860" lon="5.95486520"><ele>1505</ele><time>2007-11-22T18:41:35Z</time></trkpt>
<trkpt lat="44.69858030" lon="5.95465590"><ele>1498</ele><time>2007-11-22T18:41:35Z</time></trkpt>
<trkpt lat="44.69792630" lon="5.95606530"><ele>1501</ele><time>2007-11-22T18:41:35Z</time></trkpt>
<trkpt lat="44.69734560" lon="5.96003570"><ele>1507</ele><time>2007-11-22T18:41:35Z</time></trkpt>
<trkpt lat="44.69690350" lon="5.96799110"><ele>1546</ele><time>2007-11-22T18:41:35Z</time></trkpt>
<trkpt lat="44.69732080" lon="5.97035350"><ele>1555</ele><time>2007-11-22T18:41:35Z</time></trkpt>
<trkpt lat="44.69719410" lon="5.97214400"><ele>1577</ele><time>2007-11-22T18:41:35Z</time></trkpt>
<trkpt lat="44.69760220" lon="5.97273860"><ele>1574</ele><time>2007-11-22T18:41:35Z</time></trkpt>
<trkpt lat="44.69758890" lon="5.97450490"><ele>1579</ele><time>2007-11-22T18:41:35Z</time></trkpt>
<trkpt lat="44.69696250" lon="5.97370690"><ele>1590</ele><time>2007-11-22T18:41:35Z</time></trkpt>
<trkpt lat="44.69541340" lon="5.97903410"><ele>1638</ele><time>2007-11-22T18:41:35Z</time></trkpt>
<trkpt lat="44.69162280" lon="5.98610850"><ele>1650</ele><time>2007-11-22T18:41:35Z</time></trkpt>
<trkpt lat="44.69284040" lon="5.98808110"><ele>1659</ele><time>2007-11-22T18:41:35Z</time></trkpt>
<trkpt lat="44.69137730" lon="5.98672360"><ele>1616</ele><time>2007-11-22T18:41:35Z</time></trkpt>
<trkpt lat="44.69261950" lon="5.98863470"><ele>1618</ele><time>2007-11-22T18:41:35Z</time></trkpt>
<trkpt lat="44.69311050" lon="5.99147520"><ele>1560</ele><time>2007-11-22T18:41:35Z</time></trkpt>
<trkpt lat="44.69375340" lon="5.99176960"><ele>1564</ele><time>2007-11-22T18:41:35Z</time></trkpt>
<trkpt lat="44.69520710" lon="5.99341070"><ele>1557</ele><time>2007-11-22T18:41:35Z</time></trkpt>
<trkpt lat="44.69556120" lon="5.99494860"><ele>1534</ele><time>2007-11-22T18:41:35Z</time></trkpt>
<trkpt lat="44.69622080" lon="5.99609620"><ele>1501</ele><time>2007-11-22T18:41:35Z</time></trkpt>
<trkpt lat="44.69803690" lon="5.99766650"><ele>1472</ele><time>2007-11-22T18:41:35Z</time></trkpt>
<trkpt lat="44.69919230" lon="5.99812070"><ele>1462</ele><time>2007-11-22T18:41:35Z</time></trkpt>
<trkpt lat="44.69810680" lon="5.99827070"><ele>1453</ele><time>2007-11-22T18:41:35Z</time></trkpt>
<trkpt lat="44.69697080" lon="5.99791240"><ele>1452</ele><time>2007-11-22T18:41:35Z</time></trkpt>
<trkpt lat="44.69598040" lon="5.99791080"><ele>1436</ele><time>2007-11-22T18:41:35Z</time></trkpt>
<trkpt lat="44.69424330" lon="5.99599860"><ele>1431</ele><time>2007-11-22T18:41:35Z</time></trkpt>
<trkpt lat="44.69410120" lon="5.99485330"><ele>1450</ele><time>2007-11-22T18:41:35Z</time></trkpt>
<trkpt lat="44.69362910" lon="5.99415970"><ele>1446</ele><time>2007-11-22T18:41:35Z</time></trkpt>
<trkpt lat="44.69252380" lon="5.99355120"><ele>1443</ele><time>2007-11-22T18:41:35Z</time></trkpt>
<trkpt lat="44.69080960" lon="5.99094650"><ele>1458</ele><time>2007-11-22T18:41:35Z</time></trkpt>
<trkpt lat="44.69072760" lon="5.99002600"><ele>1467</ele><time>2007-11-22T18:41:35Z</time></trkpt>
<trkpt lat="44.69012060" lon="5.99068070"><ele>1443</ele><time>2007-11-22T18:41:35Z</time></trkpt>
<trkpt lat="44.69000670" lon="5.99139900"><ele>1431</ele><time>2007-11-22T18:41:35Z</time></trkpt>
<trkpt lat="44.68812110" lon="5.99124440"><ele>1393</ele><time>2007-11-22T18:41:35Z</time></trkpt>
<trkpt lat="44.68720340" lon="5.99244670"><ele>1370</ele><time>2007-11-22T18:41:35Z</time></trkpt>
<trkpt lat="44.68782750" lon="5.99330780"><ele>1351</ele><time>2007-11-22T18:41:35Z</time></trkpt>
<trkpt lat="44.68748850" lon="5.99470550"><ele>1333</ele><time>2007-11-22T18:41:35Z</time></trkpt>
<trkpt lat="44.68796900" lon="5.99514710"><ele>1318</ele><time>2007-11-22T18:41:35Z</time></trkpt>
<trkpt lat="44.68756990" lon="5.99632010"><ele>1302</ele><time>2007-11-22T18:41:35Z</time></trkpt>
<trkpt lat="44.68766960" lon="5.99670520"><ele>1298</ele><time>2007-11-22T18:41:35Z</time></trkpt>
<trkpt lat="44.68834030" lon="5.99684370"><ele>1294</ele><time>2007-11-22T18:41:35Z</time></trkpt>
<trkpt lat="44.68856440" lon="5.99755250"><ele>1284</ele><time>2007-11-22T18:41:35Z</time></trkpt>
<trkpt lat="44.68850150" lon="5.99944160"><ele>1266</ele><time>2007-11-22T18:41:35Z</time></trkpt>
<trkpt lat="44.68879970" lon="6.00062860"><ele>1234</ele><time>2007-11-22T18:41:35Z</time></trkpt>
<trkpt lat="44.68992840" lon="6.00120720"><ele>1230</ele><time>2007-11-22T18:41:35Z</time></trkpt>
<trkpt lat="44.69051790" lon="6.00310750"><ele>1206</ele><time>2007-11-22T18:41:35Z</time></trkpt>
<trkpt lat="44.69019510" lon="6.00333880"><ele>1202</ele><time>2007-11-22T18:41:35Z</time></trkpt>
<trkpt lat="44.68993210" lon="6.00515180"><ele>1186</ele><time>2007-11-22T18:41:35Z</time></trkpt>
<trkpt lat="44.68888570" lon="6.00615610"><ele>1178</ele><time>2007-11-22T18:41:35Z</time></trkpt>
<trkpt lat="44.68882970" lon="6.00716210"><ele>1166</ele><time>2007-11-22T18:41:35Z</time></trkpt>
<trkpt lat="44.68899800" lon="6.00953970"><ele>1142</ele><time>2007-11-22T18:41:35Z</time></trkpt>
<trkpt lat="44.68824420" lon="6.00986890"><ele>1141</ele><time>2007-11-22T18:41:35Z</time></trkpt>
<trkpt lat="44.68126040" lon="6.00802300"><ele>1191</ele><time>2007-11-22T18:41:35Z</time></trkpt>
<trkpt lat="44.68073440" lon="6.00827250"><ele>1190</ele><time>2007-11-22T18:41:35Z</time></trkpt>
<trkpt lat="44.68069620" lon="6.00874330"><ele>1180</ele><time>2007-11-22T18:41:35Z</time></trkpt>
<trkpt lat="44.67965570" lon="6.00889590"><ele>1186</ele><time>2007-11-22T18:41:35Z</time></trkpt>
<trkpt lat="44.67969680" lon="6.00968730"><ele>1175</ele><time>2007-11-22T18:41:35Z</time></trkpt>
<trkpt lat="44.67645800" lon="6.00893880"><ele>1221</ele><time>2007-11-22T18:41:35Z</time></trkpt>
<trkpt lat="44.67593470" lon="6.00843130"><ele>1227</ele><time>2007-11-22T18:41:35Z</time></trkpt>
<trkpt lat="44.67571360" lon="6.00898470"><ele>1233</ele><time>2007-11-22T18:41:35Z</time></trkpt>
<trkpt lat="44.67695710" lon="6.01017030"><ele>1215</ele><time>2007-11-22T18:41:35Z</time></trkpt>
<trkpt lat="44.67587840" lon="6.01079360"><ele>1234</ele><time>2007-11-22T18:41:35Z</time></trkpt>
<trkpt lat="44.67563380" lon="6.01137700"><ele>1234</ele><time>2007-11-22T18:41:35Z</time></trkpt>
<trkpt lat="44.67757310" lon="6.01194580"><ele>1215</ele><time>2007-11-22T18:41:35Z</time></trkpt>
<trkpt lat="44.67818520" lon="6.01249070"><ele>1206</ele><time>2007-11-22T18:41:35Z</time></trkpt>
<trkpt lat="44.68123360" lon="6.01691830"><ele>1158</ele><time>2007-11-22T18:41:35Z</time></trkpt>
<trkpt lat="44.68209410" lon="6.02012980"><ele>1140</ele><time>2007-11-22T18:41:35Z</time></trkpt>
<trkpt lat="44.68393300" lon="6.02100790"><ele>1129</ele><time>2007-11-22T18:41:35Z</time></trkpt>
<trkpt lat="44.68554710" lon="6.02591000"><ele>1138</ele><time>2007-11-22T18:41:35Z</time></trkpt>
<trkpt lat="44.68784940" lon="6.02773390"><ele>1133</ele><time>2007-11-22T18:41:35Z</time></trkpt>
<trkpt lat="44.68878700" lon="6.02931020"><ele>1116</ele><time>2007-11-22T18:41:35Z</time></trkpt>
<trkpt lat="44.68970890" lon="6.02933940"><ele>1109</ele><time>2007-11-22T18:41:35Z</time></trkpt>
<trkpt lat="44.68966240" lon="6.03072480"><ele>1105</ele><time>2007-11-22T18:41:35Z</time></trkpt>
<trkpt lat="44.68830270" lon="6.03502120"><ele>1110</ele><time>2007-11-22T18:41:35Z</time></trkpt>
<trkpt lat="44.68839170" lon="6.03572120"><ele>1113</ele><time>2007-11-22T18:41:35Z</time></trkpt>
<trkpt lat="44.68906790" lon="6.03636540"><ele>1102</ele><time>2007-11-22T18:41:35Z</time></trkpt>
<trkpt lat="44.68867130" lon="6.03678100"><ele>1107</ele><time>2007-11-22T18:41:35Z</time></trkpt>
<trkpt lat="44.68857470" lon="6.03898340"><ele>1101</ele><time>2007-11-22T18:41:35Z</time></trkpt>
<trkpt lat="44.68587390" lon="6.04432670"><ele>1105</ele><time>2007-11-22T18:41:35Z</time></trkpt>
<trkpt lat="44.68531010" lon="6.04368990"><ele>1127</ele><time>2007-11-22T18:41:35Z</time></trkpt>
<trkpt lat="44.68440780" lon="6.04508160"><ele>1128</ele><time>2007-11-22T18:41:35Z</time></trkpt>
<trkpt lat="44.68383260" lon="6.04545370"><ele>1134</ele><time>2007-11-22T18:41:35Z</time></trkpt>
<trkpt lat="44.68334270" lon="6.04529510"><ele>1145</ele><time>2007-11-22T18:41:35Z</time></trkpt>
<trkpt lat="44.68275910" lon="6.04658160"><ele>1138</ele><time>2007-11-22T18:41:35Z</time></trkpt>
<trkpt lat="44.68159970" lon="6.04625240"><ele>1165</ele><time>2007-11-22T18:41:35Z</time></trkpt>
<trkpt lat="44.68040420" lon="6.04699360"><ele>1194</ele><time>2007-11-22T18:41:35Z</time></trkpt>
<trkpt lat="44.67938130" lon="6.04929210"><ele>1186</ele><time>2007-11-22T18:41:35Z</time></trkpt>
<trkpt lat="44.67953040" lon="6.05087940"><ele>1166</ele><time>2007-11-22T18:41:35Z</time></trkpt>
<trkpt lat="44.67914710" lon="6.05356730"><ele>1130</ele><time>2007-11-22T18:41:35Z</time></trkpt>
<trkpt lat="44.67880910" lon="6.05357640"><ele>1136</ele><time>2007-11-22T18:41:35Z</time></trkpt>
<trkpt lat="44.67834840" lon="6.05455540"><ele>1131</ele><time>2007-11-22T18:41:35Z</time></trkpt>
<trkpt lat="44.67778300" lon="6.05663160"><ele>1110</ele><time>2007-11-22T18:41:35Z</time></trkpt>
<trkpt lat="44.67552470" lon="6.05884780"><ele>1112</ele><time>2007-11-22T18:41:35Z</time></trkpt>
<trkpt lat="44.67385200" lon="6.05905220"><ele>1116</ele><time>2007-11-22T18:41:35Z</time></trkpt>
<trkpt lat="44.67238700" lon="6.05977510"><ele>1104</ele><time>2007-11-22T18:41:35Z</time></trkpt>
<trkpt lat="44.67160080" lon="6.05906040"><ele>1117</ele><time>2007-11-22T18:41:35Z</time></trkpt>
<trkpt lat="44.67006500" lon="6.05921080"><ele>1115</ele><time>2007-11-22T18:41:35Z</time></trkpt>
<trkpt lat="44.66954640" lon="6.05923940"><ele>1116</ele><time>2007-11-22T18:41:35Z</time></trkpt>
<trkpt lat="44.66840300" lon="6.05843800"><ele>1122</ele><time>2007-11-22T18:41:35Z</time></trkpt>
<trkpt lat="44.66829420" lon="6.06032340"><ele>1093</ele><time>2007-11-22T18:41:35Z</time></trkpt>
<trkpt lat="44.66705690" lon="6.06096660"><ele>1093</ele><time>2007-11-22T18:41:35Z</time></trkpt>
<trkpt lat="44.66586760" lon="6.06085610"><ele>1104</ele><time>2007-11-22T18:41:35Z</time></trkpt>
<trkpt lat="44.66546860" lon="6.06000950"><ele>1119</ele><time>2007-11-22T18:41:35Z</time></trkpt>
<trkpt lat="44.66508250" lon="6.06011000"><ele>1125</ele><time>2007-11-22T18:41:35Z</time></trkpt>
<trkpt lat="44.66477880" lon="6.06043680"><ele>1126</ele><time>2007-11-22T18:41:35Z</time></trkpt>
<trkpt lat="44.66449960" lon="6.06003980"><ele>1132</ele><time>2007-11-22T18:41:35Z</time></trkpt>
<trkpt lat="44.66454980" lon="6.05922300"><ele>1140</ele><time>2007-11-22T18:41:35Z</time></trkpt>
<trkpt lat="44.66507580" lon="6.05831170"><ele>1150</ele><time>2007-11-22T18:41:35Z</time></trkpt>
<trkpt lat="44.66610760" lon="6.05708700"><ele>1175</ele><time>2007-11-22T18:41:35Z</time></trkpt>
<trkpt lat="44.66721770" lon="6.05687680"><ele>1169</ele><time>2007-11-22T18:41:35Z</time></trkpt>
<trkpt lat="44.66734380" lon="6.05647510"><ele>1171</ele><time>2007-11-22T18:41:35Z</time></trkpt>
<trkpt lat="44.66694580" lon="6.05559700"><ele>1199</ele><time>2007-11-22T18:41:35Z</time></trkpt>
<trkpt lat="44.66689320" lon="6.05448960"><ele>1203</ele><time>2007-11-22T18:41:35Z</time></trkpt>
<trkpt lat="44.66548580" lon="6.05483780"><ele>1224</ele><time>2007-11-22T18:41:35Z</time></trkpt>
<trkpt lat="44.66630580" lon="6.05322050"><ele>1231</ele><time>2007-11-22T18:41:35Z</time></trkpt>
<trkpt lat="44.66378000" lon="6.05469310"><ele>1264</ele><time>2007-11-22T18:41:35Z</time></trkpt>
<trkpt lat="44.66293080" lon="6.05451070"><ele>1279</ele><time>2007-11-22T18:41:35Z</time></trkpt>
<trkpt lat="44.66163880" lon="6.05410960"><ele>1289</ele><time>2007-11-22T18:41:35Z</time></trkpt>
<trkpt lat="44.65952020" lon="6.05418990"><ele>1295</ele><time>2007-11-22T18:41:35Z</time></trkpt>
<trkpt lat="44.65767200" lon="6.05359430"><ele>1292</ele><time>2007-11-22T18:41:35Z</time></trkpt>
<trkpt lat="44.65698630" lon="6.05257120"><ele>1292</ele><time>2007-11-22T18:41:35Z</time></trkpt>
<trkpt lat="44.65604780" lon="6.05503190"><ele>1277</ele><time>2007-11-22T18:41:35Z</time></trkpt>
<trkpt lat="44.65524040" lon="6.05560900"><ele>1275</ele><time>2007-11-22T18:41:35Z</time></trkpt>
<trkpt lat="44.65411750" lon="6.05553460"><ele>1303</ele><time>2007-11-22T18:41:35Z</time></trkpt>
<trkpt lat="44.65378920" lon="6.05592270"><ele>1315</ele><time>2007-11-22T18:41:35Z</time></trkpt>
<trkpt lat="44.65456720" lon="6.05821340"><ele>1295</ele><time>2007-11-22T18:41:35Z</time></trkpt>
<trkpt lat="44.65321890" lon="6.06014210"><ele>1316</ele><time>2007-11-22T18:41:35Z</time></trkpt>
<trkpt lat="44.65074630" lon="6.06004100"><ele>1318</ele><time>2007-11-22T18:41:35Z</time></trkpt>
<trkpt lat="44.64994200" lon="6.05986140"><ele>1318</ele><time>2007-11-22T18:41:35Z</time></trkpt>
<trkpt lat="44.64834200" lon="6.05925070"><ele>1334</ele><time>2007-11-22T18:41:35Z</time></trkpt>
<trkpt lat="44.64818390" lon="6.06059610"><ele>1331</ele><time>2007-11-22T18:41:35Z</time></trkpt>
<trkpt lat="44.64752560" lon="6.06408390"><ele>1309</ele><time>2007-11-22T18:41:35Z</time></trkpt>
<trkpt lat="44.64811070" lon="6.06475340"><ele>1299</ele><time>2007-11-22T18:41:35Z</time></trkpt>
<trkpt lat="44.64741980" lon="6.06521200"><ele>1313</ele><time>2007-11-22T18:41:35Z</time></trkpt>
<trkpt lat="44.64735040" lon="6.06593260"><ele>1318</ele><time>2007-11-22T18:41:35Z</time></trkpt>
<trkpt lat="44.64757300" lon="6.06799700"><ele>1316</ele><time>2007-11-22T18:41:35Z</time></trkpt>
<trkpt lat="44.64637880" lon="6.07334090"><ele>1289</ele><time>2007-11-22T18:41:35Z</time></trkpt>
<trkpt lat="44.64551890" lon="6.07413490"><ele>1288</ele><time>2007-11-22T18:41:35Z</time></trkpt>
<trkpt lat="44.64413390" lon="6.07315970"><ele>1313</ele><time>2007-11-22T18:41:35Z</time></trkpt>
<trkpt lat="44.64339070" lon="6.07317330"><ele>1306</ele><time>2007-11-22T18:41:35Z</time></trkpt>
<trkpt lat="44.64233190" lon="6.07319730"><ele>1296</ele><time>2007-11-22T18:41:35Z</time></trkpt>
<trkpt lat="44.64142180" lon="6.07546980"><ele>1276</ele><time>2007-11-22T18:41:35Z</time></trkpt>
<trkpt lat="44.64136840" lon="6.07704270"><ele>1258</ele><time>2007-11-22T18:41:35Z</time></trkpt>
<trkpt lat="44.64017590" lon="6.07901240"><ele>1252</ele><time>2007-11-22T18:41:35Z</time></trkpt>
<trkpt lat="44.63747230" lon="6.08040830"><ele>1234</ele><time>2007-11-22T18:41:35Z</time></trkpt>
<trkpt lat="44.63615040" lon="6.08088760"><ele>1236</ele><time>2007-11-22T18:41:35Z</time></trkpt>
<trkpt lat="44.63463820" lon="6.07968320"><ele>1257</ele><time>2007-11-22T18:41:35Z</time></trkpt>
<trkpt lat="44.63403940" lon="6.07809860"><ele>1274</ele><time>2007-11-22T18:41:35Z</time></trkpt>
<trkpt lat="44.63170790" lon="6.07516900"><ele>1299</ele><time>2007-11-22T18:41:35Z</time></trkpt>
<trkpt lat="44.63180200" lon="6.07306330"><ele>1315</ele><time>2007-11-22T18:41:35Z</time></trkpt>
<trkpt lat="44.63062650" lon="6.07055780"><ele>1344</ele><time>2007-11-22T18:41:35Z</time></trkpt>
<trkpt lat="44.63069620" lon="6.07314720"><ele>1311</ele><time>2007-11-22T18:41:35Z</time></trkpt>
<trkpt lat="44.62944710" lon="6.07347380"><ele>1307</ele><time>2007-11-22T18:41:35Z</time></trkpt>
<trkpt lat="44.62932310" lon="6.07513620"><ele>1290</ele><time>2007-11-22T18:41:35Z</time></trkpt>
<trkpt lat="44.62885040" lon="6.07579820"><ele>1287</ele><time>2007-11-22T18:41:35Z</time></trkpt>
<trkpt lat="44.62865890" lon="6.07679410"><ele>1281</ele><time>2007-11-22T18:41:35Z</time></trkpt>
<trkpt lat="44.62812310" lon="6.07732570"><ele>1283</ele><time>2007-11-22T18:41:35Z</time></trkpt>
<trkpt lat="44.62842150" lon="6.07781840"><ele>1274</ele><time>2007-11-22T18:41:35Z</time></trkpt>
<trkpt lat="44.62832630" lon="6.07929360"><ele>1255</ele><time>2007-11-22T18:41:35Z</time></trkpt>
<trkpt lat="44.62789960" lon="6.07992710"><ele>1251</ele><time>2007-11-22T18:41:35Z</time></trkpt>
<trkpt lat="44.62657990" lon="6.08100520"><ele>1254</ele><time>2007-11-22T18:41:35Z</time></trkpt>
<trkpt lat="44.62646330" lon="6.08178550"><ele>1246</ele><time>2007-11-22T18:41:35Z</time></trkpt>
<trkpt lat="44.62598840" lon="6.08118640"><ele>1253</ele><time>2007-11-22T18:41:35Z</time></trkpt>
<trkpt lat="44.62517990" lon="6.08113240"><ele>1252</ele><time>2007-11-22T18:41:35Z</time></trkpt>
<trkpt lat="44.62433720" lon="6.08076100"><ele>1255</ele><time>2007-11-22T18:41:35Z</time></trkpt>
<trkpt lat="44.62229240" lon="6.08197980"><ele>1236</ele><time>2007-11-22T18:41:35Z</time></trkpt>
<trkpt lat="44.62184430" lon="6.08191830"><ele>1237</ele><time>2007-11-22T18:41:35Z</time></trkpt>
<trkpt lat="44.62169350" lon="6.08238100"><ele>1237</ele><time>2007-11-22T18:41:35Z</time></trkpt>
<trkpt lat="44.62076950" lon="6.08241390"><ele>1241</ele><time>2007-11-22T18:41:35Z</time></trkpt>
<trkpt lat="44.62024540" lon="6.08392320"><ele>1244</ele><time>2007-11-22T18:41:35Z</time></trkpt>
<trkpt lat="44.61947540" lon="6.08339900"><ele>1247</ele><time>2007-11-22T18:41:35Z</time></trkpt>
<trkpt lat="44.61765620" lon="6.08393940"><ele>1255</ele><time>2007-11-22T18:41:35Z</time></trkpt>
<trkpt lat="44.61648730" lon="6.08323100"><ele>1257</ele><time>2007-11-22T18:41:35Z</time></trkpt>
<trkpt lat="44.61495270" lon="6.08202560"><ele>1260</ele><time>2007-11-22T18:41:35Z</time></trkpt>
<trkpt lat="44.61099260" lon="6.08132010"><ele>1255</ele><time>2007-11-22T18:41:35Z</time></trkpt>
<trkpt lat="44.60923440" lon="6.08139180"><ele>1255</ele><time>2007-11-22T18:41:35Z</time></trkpt>
<trkpt lat="44.60917240" lon="6.08189180"><ele>1260</ele><time>2007-11-22T18:41:35Z</time></trkpt>
<trkpt lat="44.61028880" lon="6.08281710"><ele>1272</ele><time>2007-11-22T18:41:35Z</time></trkpt>
<trkpt lat="44.61027710" lon="6.08316300"><ele>1275</ele><time>2007-11-22T18:41:35Z</time></trkpt>
<trkpt lat="44.60945890" lon="6.08405370"><ele>1281</ele><time>2007-11-22T18:41:35Z</time></trkpt>
<trkpt lat="44.60681830" lon="6.08557880"><ele>1276</ele><time>2007-11-22T18:41:35Z</time></trkpt>
<trkpt lat="44.60597450" lon="6.08590060"><ele>1279</ele><time>2007-11-22T18:41:35Z</time></trkpt>
<trkpt lat="44.60533390" lon="6.08554270"><ele>1274</ele><time>2007-11-22T18:41:35Z</time></trkpt>
<trkpt lat="44.60429970" lon="6.08616680"><ele>1270</ele><time>2007-11-22T18:41:35Z</time></trkpt>
<trkpt lat="44.60407400" lon="6.08684480"><ele>1270</ele><time>2007-11-22T18:41:35Z</time></trkpt>
<trkpt lat="44.60426500" lon="6.09114270"><ele>1264</ele><time>2007-11-22T18:41:35Z</time></trkpt>
<trkpt lat="44.60564970" lon="6.09277920"><ele>1266</ele><time>2007-11-22T18:41:35Z</time></trkpt>
<trkpt lat="44.60513520" lon="6.09334350"><ele>1259</ele><time>2007-11-22T18:41:35Z</time></trkpt>
<trkpt lat="44.60432100" lon="6.09543150"><ele>1238</ele><time>2007-11-22T18:41:35Z</time></trkpt>
<trkpt lat="44.60354790" lon="6.09500160"><ele>1226</ele><time>2007-11-22T18:41:35Z</time></trkpt>
<trkpt lat="44.60239400" lon="6.09517640"><ele>1189</ele><time>2007-11-22T18:41:35Z</time></trkpt>
<trkpt lat="44.60092910" lon="6.09325090"><ele>1182</ele><time>2007-11-22T18:41:35Z</time></trkpt>
<trkpt lat="44.59935490" lon="6.09320860"><ele>1160</ele><time>2007-11-22T18:41:35Z</time></trkpt>
<trkpt lat="44.59874520" lon="6.09392390"><ele>1142</ele><time>2007-11-22T18:41:35Z</time></trkpt>
<trkpt lat="44.59943820" lon="6.09406480"><ele>1143</ele><time>2007-11-22T18:41:35Z</time></trkpt>
<trkpt lat="44.59973540" lon="6.09458880"><ele>1135</ele><time>2007-11-22T18:41:35Z</time></trkpt>
<trkpt lat="44.60059520" lon="6.09511890"><ele>1138</ele><time>2007-11-22T18:41:35Z</time></trkpt>
<trkpt lat="44.60103880" lon="6.09596780"><ele>1152</ele><time>2007-11-22T18:41:35Z</time></trkpt>
<trkpt lat="44.60046880" lon="6.09618170"><ele>1146</ele><time>2007-11-22T18:41:35Z</time></trkpt>
<trkpt lat="44.59869000" lon="6.09817330"><ele>1145</ele><time>2007-11-22T18:41:35Z</time></trkpt>
<trkpt lat="44.59847480" lon="6.09919860"><ele>1138</ele><time>2007-11-22T18:41:35Z</time></trkpt>
<trkpt lat="44.59926610" lon="6.10435550"><ele>1144</ele><time>2007-11-22T18:41:35Z</time></trkpt>
<trkpt lat="44.59925160" lon="6.10674890"><ele>1141</ele><time>2007-11-22T18:41:35Z</time></trkpt>
<trkpt lat="44.60101080" lon="6.11058480"><ele>1133</ele><time>2007-11-22T18:41:35Z</time></trkpt>
<trkpt lat="44.60229410" lon="6.11057660"><ele>1142</ele><time>2007-11-22T18:41:35Z</time></trkpt>
<trkpt lat="44.60237210" lon="6.11092850"><ele>1144</ele><time>2007-11-22T18:41:35Z</time></trkpt>
<trkpt lat="44.60123390" lon="6.11195460"><ele>1138</ele><time>2007-11-22T18:41:35Z</time></trkpt>
<trkpt lat="44.60174540" lon="6.11410000"><ele>1142</ele><time>2007-11-22T18:41:35Z</time></trkpt>
<trkpt lat="44.60171420" lon="6.11762670"><ele>1136</ele><time>2007-11-22T18:41:35Z</time></trkpt>
<trkpt lat="44.59943250" lon="6.11328270"><ele>1108</ele><time>2007-11-22T18:41:35Z</time></trkpt>
<trkpt lat="44.59719230" lon="6.11231290"><ele>1085</ele><time>2007-11-22T18:41:35Z</time></trkpt>
<trkpt lat="44.59628860" lon="6.10913320"><ele>1073</ele><time>2007-11-22T18:41:35Z</time></trkpt>
<trkpt lat="44.59554330" lon="6.10460960"><ele>1053</ele><time>2007-11-22T18:41:35Z</time></trkpt>
<trkpt lat="44.59371840" lon="6.10202990"><ele>1030</ele><time>2007-11-22T18:41:35Z</time></trkpt>
<trkpt lat="44.59373280" lon="6.09963670"><ele>1028</ele><time>2007-11-22T18:41:35Z</time></trkpt>
<trkpt lat="44.59307860" lon="6.09836430"><ele>993</ele><time>2007-11-22T18:41:35Z</time></trkpt>
<trkpt lat="44.58933040" lon="6.09738860"><ele>997</ele><time>2007-11-22T18:41:35Z</time></trkpt>
<trkpt lat="44.58847820" lon="6.09663860"><ele>993</ele><time>2007-11-22T18:41:35Z</time></trkpt>
<trkpt lat="44.58515730" lon="6.09172300"><ele>957</ele><time>2007-11-22T18:41:35Z</time></trkpt>
<trkpt lat="44.58211620" lon="6.08849610"><ele>904</ele><time>2007-11-22T18:41:35Z</time></trkpt>
<trkpt lat="44.57841070" lon="6.08758710"><ele>869</ele><time>2007-11-22T18:41:35Z</time></trkpt>
<trkpt lat="44.57794990" lon="6.08658000"><ele>872</ele><time>2007-11-22T18:41:35Z</time></trkpt>
<trkpt lat="44.57777780" lon="6.08634800"><ele>869</ele><time>2007-11-22T18:41:35Z</time></trkpt>
<trkpt lat="44.57760550" lon="6.08677740"><ele>865</ele><time>2007-11-22T18:41:35Z</time></trkpt>
<trkpt lat="44.57664090" lon="6.08668150"><ele>853</ele><time>2007-11-22T18:41:35Z</time></trkpt>
<trkpt lat="44.57364340" lon="6.08547360"><ele>816</ele><time>2007-11-22T18:41:35Z</time></trkpt>
<trkpt lat="44.57341460" lon="6.08492300"><ele>811</ele><time>2007-11-22T18:41:35Z</time></trkpt>
<trkpt lat="44.57116980" lon="6.08474170"><ele>786</ele><time>2007-11-22T18:41:35Z</time></trkpt>
<trkpt lat="44.56916350" lon="6.08548940"><ele>768</ele><time>2007-11-22T18:41:35Z</time></trkpt>
<trkpt lat="44.56734660" lon="6.08530510"><ele>763</ele><time>2007-11-22T18:41:35Z</time></trkpt>
<trkpt lat="44.56709330" lon="6.08349350"><ele>760</ele><time>2007-11-22T18:41:35Z</time></trkpt>
<trkpt lat="44.56212580" lon="6.08394910"><ele>741</ele><time>2007-11-22T18:41:35Z</time></trkpt>
<trkpt lat="44.56290420" lon="6.08620500"><ele>742</ele><time>2007-11-22T18:41:35Z</time></trkpt>
<trkpt lat="44.56230950" lon="6.08648010"><ele>740</ele><time>2007-11-22T18:41:35Z</time></trkpt>
<trkpt lat="44.56251050" lon="6.08718620"><ele>739</ele><time>2007-11-22T18:41:35Z</time></trkpt>
</trkseg></trk></gpx>